Карточка аэропорта ULOO

Внимание!
Информация на этой странице в стадии наполнения.
Если вы не увидели какой-то информации, или заметили неточность - пожалуйста сообщите нам!
Спасибо!
Команда RU-STAFF
Название аэропортаПсков (Кресты)
Название аэропорта (англ.)Pskov (Kresty)
Превышение47 ft. (14.3 m.)
Координаты57°46.914', 28°23.652'
Высота перехода1000m
Эшелон переходаFL50-FL70
Коды ответчика1000
Зона ОрВДСанкт-Петербург РПИ (ULLL)
Данные METARULOO 192300Z 27005MPS 9999 SCT016 17/16 Q1012 NOSIG RMK QFE754
Проноз погоды (TAF)ULOO 192257Z 2000/2009 27003G08MPS 6000 BKN016 TEMPO 2000/2004 0500 FG OVC004 TEMPO 2004/2009 3100 -SHRA BKN016CB
NOTAMshow/hide NOTAM
AWOS   TABLE

Информация о ВПП

ВПП Длина ВПП (м.) Покрытие Курс ВПП Частота ILS
012524Асфальтобетон9 
192524Асфальтобетон189 

Диспетчерские позиции


Сценарии



Спутниковое изображение